Location: Unspecified
(0.0000°N, 0.0000°E)
Time: 14:54:03
(UTC+00:00)

S-56A Canister/Altair - Pass Details

Date: 25 November 2019
Orbit: 633 x 2499 km, 38.9° (Epoch: 08 July)

Event Time Altitude Azimuth Distance (km) Brightness Sun altitude
Rises 07:36:34 0° 195° (SSW) 5,140 11.8 25.5°
Reaches altitude 10° 07:43:56 10° 164° (SSE) 4,620 12.2 27.2°
Maximum altitude 07:47:38 11° 147° (SSE) 4,682 12.6 28.1°
Drops below altitude 10° 07:51:34 10° 130° (SE) 4,964 13.1 29.0°
Sets 08:00:28 0° 102° (ESE) 6,165 13.2 31.0°
